Tracking 31027 objects as of 18-Jul-2025
HD Live streaming from Space Station
objects crossing your sky now

DELTA 1 DEB

Track DELTA 1 DEB now!
10-day predictions


NORAD ID: 7160
Int'l Code: 1973-086DY
Perigee: 1,473.2 km
Apogee: 1,596.1 km
Inclination: 102.1 °
Period: 116.6 minutes
Semi major axis: 7905 km
RCS: 0.0715 m2 (small)
Launch date: November 6, 1973
Source: United States (US)
Launch site: AIR FORCE WESTERN TEST RANGE (AFWTR)

Note: This is SATELLITE DEBRIS
Your satellite tracking list
Your tracking list is empty




NASA's NSSDC Master Catalog

Two Line Element Set (TLE):
1 07160U 73086DY  25197.82447132  .00000107  00000-0  11996-2 0  9999
2 07160 102.0950 162.3594 0077774 249.5826 139.2432 12.35084635324382
Source of the keplerian elements: AFSPC